Starlink 30405

operational
NORAD ID: 57851 Int'l Des: 2023-141 Owner: SPXS Country: US Constellation: starlink
LEOCIRCULAR

关于 Starlink 30405

正在加载描述...

实时位置

正在加载3D地球...

即将过境

高度历史

Altitude vs Time

uPlot chart will show altitude changes over time

两行轨道根数

1 57851U 23141M 25310.22808507 -.00005726 00000-0 -18142-3 0 9991
2 57851 53.1607 137.6671 0000890 200.3237 159.7729 15.30186051121425
Epoch: Nov 6, 2025 • Age: 17 hours

当前状态

高度 492.2 km
速度 7.62 km/s
星下点 -49.27°S, 51.95°E
发射日期 Sep 12, 2023
运行时间 2.1 years
类型 internet

技术详情

分类 Payload
质量 730.00 kg
干质量 700.00 kg
总质量 730.00 kg
长度 0.30 m
直径 4.10 m
跨度 29.00 m
形状 Box + pan
制造商 SPXS
平台类型 Starlink V2M
阶段状态 In Orbit
所有者/国家 SPXS/US

大型星座

Loading constellations...